sat.trackr.live / text

‹ back to catalog

STARLINK-5568

NORAD 55372 · 2023-013AT

PAYLOAD ACTIVE UNKNOWN

§ Identity

Operator
Country
US
Launch date
2023-01-26
Launch site
AFETR
Launch vehicle
Mass (kg)
RCS (m²)

Purposes: comms

External: N2YO · Heavens-Above · Gunter

§ Orbital elements

Epoch: 2026-09-20T13:35:45.295008Z

Period
94.27 min
Inclination
43.0031°
Eccentricity
0.0001642
Mean motion
15.27577362 rev/d
Perigee alt
481.9 km
Apogee alt
484.2 km
Semi-major
6,861.2 km
B*
9.4584e-6
RAAN
297.8460°
Arg perigee
287.0820°
Mean anomaly
72.9852°
Rev number
20,130

§ Raw data

STARLINK-55681 55372U 23013AT  26263.56649647 -.00000002  00000+0  94584-5 0  99942 55372  43.0031 297.8460 0001642 287.0820  72.9852 15.27577362201305

JSON: /api/v1/satellites/55372 · /tle

For live sub-satellite position, see the globe view (requires WebGL).

§ Visibility from observer

Set your observer location to see the next 7 days of passes ≥ 10°. The values pass through the URL so the page stays shareable.

No JS? Fill the form by hand. The geolocation button needs JavaScript.